GEFSNGP_500_meanwind_084.txt.gz
Wind_Speed
18 19 21 23 24 25 26 26 26 24 23 22 24 25 26 26 27 28 29 31 32 34 35 36 37 38 38 39 40 41 41 42 42 42 42 43 43 42 42 42 41 40 40 39
18 20 21 22 23 24 25 25 25 25 23 22 24 26 27 27 27 28 29 30 31 32 33 35 36 36 37 38 38 39 40 40 40 40 40 40 41 41 40 40 40 39 38 37
19 20 21 22 21 23 23 23 24 24 23 24 26 27 27 28 28 29 29 30 30 30 31 32 33 35 36 36 37 37 38 38 39 39 39 39 39 39 39 38 38 37 37 36
20 21 22 20 21 22 23 23 24 24 24 25 26 26 27 27 27 27 28 28 28 29 30 31 31 32 33 34 34 35 36 36 37 37 37 37 37 37 37 36 36 36 36 35
21 22 21 20 21 21 22 22 23 24 24 25 26 26 26 26 26 27 27 27 27 27 28 29 30 31 31 32 33 33 33 33 34 34 34 34 34 34 34 34 34 34 34 33
22 22 21 20 21 21 22 22 23 24 24 24 24 24 24 26 27 27 27 27 27 27 27 27 28 29 29 30 30 31 31 31 32 32 32 32 32 32 32 32 31 31 31 31
22 22 21 20 21 21 21 22 22 22 23 23 23 23 24 25 25 25 25 25 25 25 26 26 26 26 27 27 28 28 28 29 29 30 30 30 30 30 30 29 29 29 29 29
21 21 20 20 20 20 20 20 20 20 21 21 21 22 22 22 23 24 24 25 24 24 25 25 25 25 26 26 26 27 27 28 28 28 28 28 28 28 28 28 28 28 28 28
20 20 20 20 20 20 19 19 19 19 19 20 20 21 21 22 23 23 23 24 24 24 24 24 25 25 25 26 26 26 26 27 27 26 26 26 26 26 27 27 27 27 27 27
19 19 20 20 19 20 19 19 19 19 19 19 19 20 21 21 22 22 22 23 23 24 24 24 23 24 24 25 25 25 25 25 25 25 25 25 26 26 26 26 26 27 27 27
19 19 20 20 20 20 20 20 19 19 20 20 20 20 20 21 21 22 22 22 23 23 23 23 23 23 23 24 24 24 25 25 25 25 25 25 25 25 26 26 26 27 27 27
21 20 20 20 20 20 20 20 20 20 20 20 20 20 20 21 21 22 22 23 23 24 24 24 24 24 24 24 24 25 25 25 25 25 25 25 25 26 26 26 27 27 27 27
23 22 21 20 20 20 20 20 20 20 20 20 21 21 21 22 22 23 23 24 24 24 25 25 25 25 25 25 25 25 25 25 25 25 26 26 26 27 27 27 27 27 27 27
24 23 23 22 21 21 21 21 21 21 21 22 22 22 22 22 23 24 24 24 24 24 25 26 26 26 26 26 26 26 26 26 26 26 26 26 27 27 27 28 28 28 28 29
24 24 23 23 22 22 22 21 21 22 22 22 23 23 23 23 24 24 24 24 25 25 26 26 26 26 26 26 27 26 26 27 27 27 27 27 27 28 28 29 29 29 30 30
24 24 24 24 24 23 23 23 22 22 23 23 23 24 24 25 25 25 25 25 26 26 27 27 27 27 27 27 27 28 28 28 28 28 28 28 29 29 29 30 30 31 31 32
23 23 24 24 24 24 24 24 24 23 23 23 24 24 24 25 25 26 26 26 27 27 27 27 28 28 28 28 28 29 29 29 29 29 29 29 30 30 31 31 31 31 32 33
22 23 23 23 23 24 24 24 24 24 24 24 24 24 25 25 25 26 26 27 27 28 28 28 29 29 29 30 30 30 30 30 31 31 31 31 31 32 32 32 33 33 34 34
21 22 22 22 22 23 24 24 24 24 24 24 24 24 25 25 26 26 26 26 27 27 28 28 29 29 30 31 31 31 31 31 32 32 32 33 33 33 34 35 35 35 36 36
20 21 21 21 21 22 22 23 23 23 23 23 23 23 24 25 25 25 26 26 27 27 28 28 28 29 30 30 31 31 32 32 32 33 33 34 34 35 35 36 36 37 37 38
19 20 21 21 21 21 21 22 22 23 23 23 24 24 24 24 24 25 25 26 27 27 28 28 28 29 29 30 30 30 31 32 33 33 33 34 35 35 36 37 37 37 38 38
20 21 22 22 22 22 22 22 22 22 23 23 23 24 24 24 24 24 25 25 26 26 26 27 27 28 29 29 29 29 30 30 31 32 33 34 35 35 36 37 37 38 38 39
20 21 21 22 22 22 22 22 22 22 23 23 23 24 24 24 24 25 25 25 25 25 26 26 26 27 28 28 29 29 30 30 31 31 32 33 34 34 35 36 36 37 37 38
21 21 21 21 21 21 21 21 22 22 22 23 23 24 24 25 25 25 25 25 25 26 26 26 26 27 27 28 28 29 30 30 31 31 32 33 33 34 35 36 36 37 37 38
21 21 20 21 21 21 21 22 23 23 23 23 23 24 24 25 25 25 26 26 26 26 27 27 27 27 27 28 29 30 30 31 32 32 32 33 33 34 34 35 35 36 37 38
22 22 22 22 22 22 22 23 23 24 24 25 25 25 25 26 26 26 26 26 27 27 27 27 28 28 28 28 29 30 30 31 32 33 33 33 34 35 35 36 36 37 38 38
23 23 24 24 24 24 24 24 24 25 26 26 26 27 27 27 27 28 28 27 27 28 28 28 28 29 29 29 30 30 31 31 32 33 34 34 35 36 36 37 37 38 38 38

GEFSNGP_500_meanwind_090.txt.gz
Wind_Speed
18 19 21 22 22 23 25 25 25 23 22 22 24 25 26 27 28 28 29 30 31 32 33 33 34 35 37 38 40 41 42 43 44 44 44 44 45 45 45 46 46 46 46 45
18 19 21 22 22 23 24 24 24 24 22 23 24 26 26 27 27 28 28 29 29 30 31 32 32 33 34 35 37 38 39 40 41 42 42 42 42 43 43 43 43 42 41 41
19 20 21 23 22 23 24 25 25 25 23 24 25 26 26 27 27 28 28 28 28 29 29 30 31 31 32 33 34 35 37 38 39 39 40 40 41 41 41 41 40 40 40 39
20 20 21 21 22 22 23 23 24 25 24 25 25 26 26 27 27 27 28 28 29 29 29 30 30 31 32 32 33 34 35 36 37 37 38 39 39 39 39 39 39 39 39 39
19 20 20 19 20 21 22 22 24 24 25 26 26 26 26 27 27 27 28 28 29 29 29 29 29 30 31 32 32 33 34 34 35 36 36 37 38 38 38 38 38 37 37 37
17 19 20 20 20 21 21 22 22 23 24 25 25 26 26 27 26 26 27 27 28 28 28 28 29 29 30 30 31 31 32 32 33 33 34 35 36 36 37 37 37 36 36 35
17 18 19 19 19 20 21 21 22 22 23 23 24 25 25 26 26 26 26 27 27 27 27 28 28 29 29 30 30 31 31 31 32 32 33 33 34 35 35 35 35 35 35 35
17 18 18 18 19 20 20 21 22 22 22 23 23 24 25 25 25 25 25 26 26 27 27 28 28 28 28 29 29 29 29 30 30 30 31 31 31 32 32 32 32 33 33 33
17 18 18 19 19 19 20 20 21 21 22 22 22 23 24 24 24 24 24 25 25 26 26 27 27 27 28 27 27 28 28 29 29 29 29 30 30 30 30 30 31 31 32 32
16 17 18 19 19 20 20 20 20 20 21 21 21 21 21 22 22 23 24 24 24 25 25 25 25 26 26 26 26 27 27 28 28 28 29 29 30 30 30 30 29 30 30 30
17 18 18 19 20 20 19 20 20 20 20 20 21 21 21 21 22 22 23 23 23 24 24 24 24 25 25 26 26 26 26 27 27 27 27 27 28 28 28 29 29 29 29 29
19 19 20 20 21 21 21 21 21 21 20 20 21 21 21 21 21 22 22 22 23 23 23 23 24 25 25 26 26 26 26 26 26 26 26 27 27 27 28 28 28 28 28 28
20 21 21 21 22 22 22 22 22 22 22 21 21 21 21 21 21 21 22 22 23 23 24 24 25 25 25 26 26 27 27 27 27 27 27 27 27 27 28 28 28 29 29 29
21 22 22 22 23 23 22 22 22 22 22 22 21 21 21 21 21 21 22 22 23 24 25 25 26 26 26 26 27 27 27 28 28 28 28 28 28 28 28 28 29 29 29 29
21 22 22 22 23 23 23 22 22 22 22 22 22 22 22 22 22 23 23 23 24 24 25 25 25 25 25 26 26 27 27 28 28 28 28 28 28 28 28 29 29 30 30 30
21 21 21 22 23 23 23 22 22 22 22 22 22 23 23 24 24 24 24 24 24 25 25 26 26 26 26 27 27 27 27 28 28 28 28 29 29 29 29 29 30 30 31 32
19 20 20 21 22 23 23 24 23 23 23 23 23 23 23 24 24 24 24 25 25 25 25 26 26 27 27 28 28 28 28 28 28 28 29 29 30 30 31 31 31 32 32 33
18 19 20 20 22 23 23 24 25 24 24 24 24 23 23 23 24 25 25 25 26 26 26 26 27 27 28 28 28 29 29 30 29 29 30 30 31 31 31 32 33 34 34 35
17 18 19 21 22 23 23 24 24 25 25 25 25 25 25 25 25 25 26 26 26 26 26 27 27 27 28 28 28 29 29 30 31 31 31 32 32 32 33 33 34 35 35 36
17 18 19 20 22 23 23 24 25 25 25 25 26 26 26 26 25 26 26 26 26 26 26 27 27 27 28 28 28 29 29 30 30 31 31 32 32 33 33 34 35 35 36 36
18 18 19 20 21 22 23 23 24 24 25 25 26 26 27 26 26 26 26 26 26 27 27 27 27 27 27 27 28 29 29 30 30 31 31 32 32 33 33 34 35 35 36 37
19 19 20 21 21 22 22 23 24 24 24 24 25 26 26 27 27 27 27 27 27 27 27 27 27 27 28 28 28 29 29 29 30 30 31 31 32 32 33 33 34 35 35 36
19 19 19 20 20 21 21 22 23 24 24 24 24 25 25 26 26 27 26 26 27 27 27 27 27 28 28 28 28 29 29 29 29 30 30 31 31 32 32 32 33 34 34 35
20 19 20 20 20 21 21 22 22 23 24 24 24 24 25 25 26 26 26 26 26 26 26 26 27 27 28 28 28 28 28 29 29 30 30 31 31 31 32 32 33 33 34 35
20 20 20 20 21 21 22 23 23 23 23 24 24 24 24 25 25 25 26 27 27 27 27 27 27 28 28 28 28 28 29 29 29 30 30 31 31 32 32 33 33 34 35 36
21 21 21 21 21 22 23 23 23 23 23 24 24 24 24 25 25 25 26 27 28 28 28 28 28 28 28 29 29 29 30 30 30 30 31 31 32 32 32 33 33 34 35 36
23 23 22 22 22 23 23 23 23 24 24 24 24 25 25 26 26 26 27 27 28 28 29 29 29 29 29 30 30 30 31 31 31 32 32 32 32 33 33 34 34 35 35 36

GEFSNGP_500_meanwind_096.txt.gz
Wind_Speed
15 16 18 20 21 23 24 24 25 24 24 24 24 25 26 27 29 30 30 31 31 32 32 32 32 33 34 35 36 37 39 40 41 42 43 44 46 46 46 47 47 47 47 47
15 16 18 20 20 21 24 24 24 24 24 24 25 25 25 26 27 28 29 30 30 30 30 30 31 31 32 33 34 35 36 37 39 40 40 41 42 42 43 44 44 44 44 44
14 15 17 18 18 20 22 23 24 24 23 24 24 24 24 25 25 26 27 29 29 29 29 29 30 30 31 32 33 33 34 35 36 38 39 39 39 40 41 42 42 43 43 43
14 14 15 15 16 17 19 20 22 23 22 23 23 23 24 25 25 25 26 27 28 28 28 29 29 30 30 31 31 32 33 34 34 35 36 37 38 38 39 39 40 41 41 41
13 14 14 14 15 16 17 17 20 21 22 23 23 23 24 25 26 27 27 27 28 28 28 29 29 29 29 30 30 31 32 33 34 35 35 36 37 37 38 38 39 39 39 40
12 13 13 14 15 16 17 18 19 20 21 22 23 23 23 24 25 26 27 28 28 28 29 29 29 29 30 30 31 32 32 33 34 34 35 36 36 37 37 37 37 38 38 38
12 13 13 14 15 16 17 17 18 19 20 21 22 23 23 24 24 25 26 27 28 28 29 29 29 30 30 30 31 31 32 32 33 33 34 35 35 35 36 36 36 36 37 37
14 14 15 16 17 17 18 18 18 18 19 20 21 22 23 24 24 25 25 26 27 28 29 29 30 30 30 30 31 31 31 32 32 33 33 34 34 34 34 35 35 35 35 35
14 15 16 17 18 18 19 19 19 19 20 20 21 22 23 23 24 24 25 26 27 28 28 29 29 29 30 30 31 31 31 31 32 32 32 32 33 33 33 33 33 33 33 33
15 16 17 17 18 19 19 20 20 20 21 21 21 22 23 24 24 24 25 25 26 27 27 28 28 29 30 30 31 31 31 31 32 32 32 32 32 31 32 32 32 32 32 32
17 18 18 18 19 19 19 20 21 21 22 22 22 23 23 24 24 24 25 25 26 26 27 27 28 28 29 30 30 31 31 31 31 31 31 31 31 31 31 31 31 31 30 30
18 19 20 21 21 21 21 22 22 22 22 23 22 22 22 22 23 24 24 25 25 26 26 27 27 28 29 29 29 30 30 30 30 30 30 30 30 30 30 30 30 29 29 29
19 21 22 23 24 24 24 23 23 23 23 23 23 23 22 23 23 23 24 24 25 25 26 26 26 27 28 28 29 29 29 29 30 30 30 30 30 30 30 30 29 29 28 28
21 22 22 24 25 26 26 25 25 24 24 24 24 24 24 24 24 24 24 25 25 25 25 26 26 27 27 28 28 29 29 30 30 30 30 30 30 30 30 30 29 29 29 29
23 23 24 24 25 26 27 26 25 25 25 25 25 25 25 25 25 26 26 26 26 26 26 27 27 27 28 28 28 29 29 29 30 30 30 30 30 30 30 30 30 30 30 30
24 25 25 25 25 25 26 26 25 25 25 25 25 25 25 25 25 26 26 26 26 27 27 27 27 27 28 28 29 29 29 29 29 29 30 30 30 30 30 30 30 30 30 30
25 25 26 25 24 24 25 26 26 25 25 25 25 25 25 25 25 26 26 27 27 27 27 27 27 27 27 27 28 28 29 29 30 30 30 30 30 30 30 30 30 30 31 31
26 26 26 25 23 23 23 24 26 26 26 26 26 26 26 26 26 26 27 27 27 27 27 27 27 27 28 28 28 28 29 29 30 30 31 31 31 31 31 31 31 32 32 32
27 27 26 25 23 21 21 22 24 25 26 26 27 27 27 27 27 27 27 27 27 28 28 28 28 28 28 29 29 29 29 29 30 30 30 31 31 31 31 31 32 32 32 33
29 28 26 25 23 21 20 21 22 24 25 26 27 27 28 28 28 28 28 27 27 28 28 29 29 29 29 29 29 29 30 30 30 30 30 31 31 31 31 31 32 32 33 33
30 28 27 25 23 22 20 21 21 22 24 25 26 27 28 28 29 29 29 29 29 29 29 30 30 30 30 30 30 30 30 30 30 31 31 31 31 31 31 32 33 33 33 33
31 29 27 25 24 23 22 22 22 22 23 25 26 27 28 28 29 29 29 29 30 30 30 30 30 30 30 30 30 30 30 30 30 30 31 31 31 31 32 32 33 34 34 35
31 29 28 26 25 24 23 23 24 24 24 25 25 27 28 28 28 29 29 29 30 30 30 30 30 30 30 30 31 31 31 31 31 31 31 31 32 32 32 33 33 33 34 34
31 30 29 27 26 25 25 25 25 25 25 25 26 26 27 28 28 29 29 29 29 30 30 30 30 30 30 30 31 31 31 31 31 31 31 32 32 32 33 33 33 33 34 34
32 30 30 29 28 27 26 26 25 25 26 26 26 27 27 28 28 28 28 28 28 28 28 29 29 30 30 30 31 31 31 32 32 32 32 32 33 33 33 33 34 34 34 34
33 31 30 30 29 28 27 26 26 26 26 25 25 25 26 26 26 26 27 27 27 28 28 28 29 30 30 30 30 31 31 32 32 32 32 33 33 33 33 33 33 33 33 33
32 30 29 28 28 27 27 27 26 26 26 25 25 25 25 26 26 26 26 26 26 27 27 28 28 28 29 29 30 30 31 32 32 33 33 33 33 34 34 34 34 34 34 34

GEFSNGP_500_meanwind_102.txt.gz
Wind_Speed
10 10 10 10 12 13 14 15 15 16 18 19 20 22 23 25 27 29 31 34 37 38 37 38 39 39 40 40 41 42 42 43 44 44 45 45 45 45 46 46 47 47 47 47
9 10 11 11 12 13 14 15 16 16 17 19 21 22 23 25 26 28 29 31 34 36 36 36 37 38 38 39 39 39 40 41 41 42 43 43 44 44 44 45 45 46 46 45
10 10 11 11 12 12 14 15 16 17 17 19 22 23 22 24 26 27 28 29 31 33 35 36 37 37 37 37 38 38 38 38 39 40 41 42 42 43 43 43 43 43 43 43
10 9 9 11 12 13 15 15 16 17 18 19 20 22 23 23 25 26 28 28 29 31 33 34 35 36 37 37 37 37 37 37 38 39 40 40 40 40 40 40 40 41 41 41
11 9 9 10 11 13 15 15 16 17 19 20 20 21 22 23 24 26 27 28 29 30 32 33 34 35 35 36 36 36 36 37 37 37 37 38 38 38 39 39 38 38 39 39
12 11 10 10 12 13 14 14 16 16 18 19 20 21 21 23 24 25 26 28 29 30 31 32 33 33 34 34 35 35 35 36 36 36 37 37 37 38 38 38 38 38 38 39
13 12 11 12 12 14 15 16 16 17 18 19 20 21 21 23 24 25 26 27 28 29 30 31 32 32 33 34 35 35 35 36 36 36 36 36 36 37 37 37 38 38 38 38
15 13 13 15 15 15 16 16 17 18 19 19 20 20 21 22 23 25 26 27 28 28 29 29 30 31 32 33 34 34 35 35 35 36 36 36 36 36 36 36 37 37 37 37
18 17 17 16 16 16 18 18 19 19 20 20 21 20 21 23 24 25 27 28 28 29 29 30 30 30 31 32 33 33 34 35 35 36 36 36 36 36 36 36 36 36 36 36
19 18 17 17 17 18 19 20 20 21 21 22 22 22 22 23 23 24 26 27 28 29 29 30 31 31 31 32 33 33 34 34 34 34 34 35 35 36 36 36 36 36 36 36
20 20 19 18 19 19 20 22 22 22 22 22 23 23 24 25 25 24 25 26 27 27 28 29 30 31 31 32 32 33 33 33 33 34 34 34 35 35 35 35 35 35 35 35
22 22 22 21 21 21 21 22 23 23 23 23 24 25 26 26 25 25 25 25 26 27 28 28 29 29 30 31 32 32 32 33 33 33 34 34 34 35 34 34 34 34 34 34
24 25 24 23 22 22 22 22 23 25 25 25 26 26 26 27 26 26 25 25 26 27 27 28 29 29 30 31 31 31 31 32 32 33 33 33 33 33 33 33 33 33 34 34
26 27 26 25 24 23 22 23 24 25 26 26 26 27 27 27 27 27 26 25 26 26 27 27 28 28 29 30 30 31 31 32 32 32 32 32 33 33 33 33 34 34 34 34
28 29 28 27 26 24 24 24 24 25 25 26 26 26 26 27 27 28 28 27 27 27 27 27 27 28 28 29 29 30 30 31 31 32 32 33 33 33 33 33 33 33 33 34
30 30 29 28 27 26 25 25 24 24 24 24 24 25 26 27 27 28 28 27 27 28 28 28 28 28 29 29 30 30 30 31 31 31 32 32 32 32 32 33 33 33 33 33
31 31 30 29 28 27 27 25 24 23 23 23 23 24 25 25 26 27 27 26 27 27 28 28 29 29 30 30 31 30 30 30 31 31 31 31 32 32 32 32 33 33 33 34
32 31 31 29 29 28 27 26 24 23 23 22 23 23 24 25 26 27 28 28 27 27 28 29 29 29 29 30 31 31 31 31 31 31 32 32 32 32 32 32 32 33 33 33
33 32 32 31 31 29 28 26 24 24 23 22 22 22 24 24 25 26 27 28 29 29 29 30 30 30 30 30 30 31 32 32 32 32 32 32 32 32 32 32 32 33 33 34
34 33 33 33 32 31 29 27 26 25 23 22 22 22 23 24 25 26 26 27 28 29 29 30 30 30 31 30 31 31 31 32 32 32 32 33 33 33 33 33 33 33 33 33
35 35 35 34 33 32 30 28 27 26 25 24 23 23 24 24 25 27 27 27 28 29 29 29 30 30 31 31 31 31 32 32 33 33 33 33 33 33 33 33 34 34 34 33
36 36 36 36 34 32 31 29 28 27 26 25 25 25 25 26 26 27 28 29 29 30 30 30 30 31 31 31 31 32 32 33 33 33 33 33 33 33 33 34 34 34 34 35
37 38 38 37 35 33 32 31 30 28 27 27 26 26 27 27 28 28 29 29 30 30 30 30 30 30 31 31 31 32 33 33 33 33 33 33 34 34 34 34 34 34 34 35
39 39 38 37 36 34 33 31 30 29 28 28 28 27 27 27 28 29 29 29 29 30 30 29 30 31 31 31 31 31 31 31 32 32 33 33 33 33 34 34 34 34 35 35
39 39 38 37 35 34 32 31 30 29 28 28 28 28 28 27 27 28 28 28 29 29 29 29 30 30 30 30 30 30 30 30 31 31 32 32 33 33 34 34 35 35 35 35
39 38 37 36 35 33 32 31 29 28 27 27 27 27 27 27 27 27 27 27 27 27 27 28 28 29 29 29 29 29 29 30 30 30 31 31 32 33 34 34 35 35 35 35
38 36 35 35 34 33 32 31 29 28 28 27 27 26 26 25 25 25 24 24 24 24 25 25 26 26 27 27 27 27 28 28 29 29 30 31 32 32 33 33 34 34 35 35

GEFSNGP_500_meanwind_108.txt.gz
Wind_Speed
11 10 9 9 9 10 10 11 13 14 13 14 15 17 18 19 21 23 25 29 31 32 34 37 39 41 42 44 45 46 46 46 47 48 48 48 49 48 48 47 46 45 45 45
12 10 9 9 9 9 10 12 13 14 14 15 16 17 18 20 22 24 26 27 30 33 34 36 37 39 40 41 43 45 46 46 46 47 47 47 48 48 47 46 46 45 45 45
12 12 11 10 10 10 10 11 13 15 15 16 16 17 18 19 21 24 26 28 29 31 33 35 37 38 40 41 41 42 44 44 44 45 45 45 46 45 45 45 45 45 45 45
13 12 10 12 11 11 11 12 12 14 15 17 17 18 19 20 21 22 25 27 29 31 31 33 36 37 38 40 40 41 42 43 43 43 43 43 43 44 44 45 45 44 44 43
15 13 12 13 13 14 14 13 14 15 16 17 18 19 20 22 23 24 25 27 28 30 31 33 35 36 37 38 39 40 41 42 42 42 42 42 43 43 43 43 43 43 43 43
17 15 14 15 15 16 17 15 16 16 16 17 18 19 20 22 23 25 27 27 29 30 32 33 34 35 36 37 39 39 39 40 40 40 41 42 42 42 42 42 42 42 42 42
17 17 16 17 18 19 18 19 19 19 19 20 21 21 21 22 23 25 27 28 29 30 31 32 33 34 35 37 38 38 38 38 39 39 40 40 40 41 40 40 40 40 41 41
18 18 18 19 19 19 20 20 20 20 20 20 22 23 23 24 24 25 27 29 30 30 30 31 32 33 34 36 37 37 37 38 38 39 39 39 39 40 40 40 41 41 41 41
19 19 20 20 20 21 22 22 23 22 21 21 22 23 24 25 25 25 27 29 31 32 31 31 31 32 33 34 35 36 37 38 39 39 39 39 40 40 40 41 40 39 40 40
20 21 21 21 22 22 23 24 24 23 23 23 23 24 24 25 26 26 26 28 28 30 31 31 31 31 32 33 34 35 35 36 37 38 39 38 39 39 39 40 40 39 39 39
21 23 24 24 24 24 25 25 26 25 25 24 24 25 26 26 27 27 27 27 27 27 29 30 31 31 31 32 32 33 34 35 36 37 37 38 38 38 38 39 39 38 38 38
23 24 25 26 27 27 27 28 28 28 27 26 26 27 27 27 26 27 27 27 27 27 27 28 29 30 30 31 31 33 33 34 36 36 37 37 38 37 38 38 38 38 38 38
24 26 27 28 29 30 30 30 30 30 29 29 29 28 28 28 27 27 27 27 27 27 27 27 28 28 29 29 30 31 33 33 34 35 36 36 37 37 38 38 38 38 38 38
25 27 28 30 31 32 32 31 31 31 31 31 30 29 28 28 27 27 27 27 27 27 28 28 29 29 29 30 31 31 32 33 34 35 36 36 37 37 38 38 38 38 38 38
27 28 29 31 33 34 34 33 32 32 32 32 31 29 27 27 27 27 28 28 27 27 28 28 29 29 29 30 31 32 32 33 34 35 35 36 36 36 36 36 36 36 36 37
29 30 31 33 34 35 35 34 33 32 32 32 31 29 28 27 26 26 27 28 28 28 28 29 30 30 30 30 31 32 33 33 33 34 34 35 35 35 35 35 35 36 36 36
30 31 32 34 35 36 36 35 34 34 33 32 31 29 28 27 26 26 26 27 28 28 29 29 30 30 30 31 31 32 32 33 33 34 34 34 35 35 35 35 34 35 35 35
31 32 33 35 36 36 36 35 35 35 34 33 31 30 29 28 28 27 27 27 28 29 29 29 30 30 30 31 31 32 32 32 33 33 33 33 34 34 34 34 34 34 34 34
33 34 35 36 37 37 37 36 36 36 35 33 32 31 31 30 30 29 29 29 29 29 29 29 30 30 30 30 30 31 32 32 33 34 34 34 34 35 35 35 34 34 34 34
35 36 37 37 38 37 37 37 37 37 36 34 33 32 31 31 30 29 29 29 29 29 30 30 29 29 29 30 30 31 31 32 32 33 33 34 34 35 35 36 36 35 35 35
36 37 38 38 38 38 38 38 38 37 37 35 34 33 32 31 29 29 28 28 28 29 29 29 29 29 29 29 30 30 30 31 31 32 32 33 33 34 34 35 36 36 36 36
38 39 40 39 39 39 39 39 38 38 37 36 35 33 32 30 29 28 28 28 28 28 29 29 29 29 29 29 30 30 30 30 31 31 31 32 32 33 33 34 35 36 37 36
39 40 41 40 40 40 40 39 39 38 37 36 35 33 32 30 29 28 28 27 27 28 28 28 29 29 29 29 29 30 30 30 31 31 32 32 32 33 33 34 34 35 36 36
41 41 41 41 41 41 40 40 39 38 37 37 35 33 32 31 30 29 28 27 26 26 26 26 27 28 29 29 29 29 29 30 30 31 32 32 33 33 33 33 33 33 34 34
42 42 42 42 42 41 40 40 39 38 37 36 34 33 32 31 30 29 28 27 27 26 26 26 26 27 27 28 28 28 28 28 29 30 30 31 31 32 32 32 32 32 33 34
42 43 43 43 42 41 40 40 39 38 37 36 34 33 32 31 30 29 28 28 27 27 27 26 26 26 26 27 27 27 28 27 27 27 28 28 29 30 30 30 31 32 33 33
43 43 44 43 43 41 40 40 39 38 36 35 34 33 32 31 30 29 28 27 27 26 25 25 25 25 26 26 25 25 25 26 26 26 27 27 28 28 29 29 30 30 31 32

GEFSNGP_500_meanwind_114.txt.gz
Wind_Speed
11 12 11 9 7 5 5 4 5 7 7 8 9 11 13 14 15 16 18 19 21 23 26 29 32 35 37 39 40 40 41 42 42 43 44 45 45 44 44 43 42 42 42 42
11 11 11 9 8 7 6 6 7 8 8 8 10 11 12 13 15 17 18 20 20 21 24 27 30 33 36 37 39 40 42 43 44 43 44 44 44 44 44 43 42 41 42 42
10 10 10 10 10 8 8 8 8 8 9 10 11 12 13 13 14 15 17 19 21 23 25 26 28 30 33 35 38 40 41 42 43 43 43 43 43 43 43 43 43 42 43 43
9 10 10 10 10 10 9 10 10 10 11 12 13 13 14 15 16 17 17 18 21 23 25 27 28 29 32 34 35 38 39 40 40 41 42 42 42 43 43 44 43 43 42 43
9 10 10 11 11 11 11 11 12 12 12 13 14 15 15 17 18 19 19 20 21 23 24 27 29 30 32 34 35 36 37 38 39 40 40 41 41 41 42 43 43 42 41 41
9 10 11 12 13 13 13 13 14 14 14 15 15 15 16 18 19 21 22 23 23 24 26 27 28 30 31 33 35 36 37 37 38 39 39 39 40 40 41 42 43 42 42 42
8 10 11 13 14 15 15 16 16 16 16 17 17 17 18 20 21 23 23 24 25 26 27 28 29 30 31 32 33 35 36 37 38 38 38 38 39 40 40 41 41 41 42 42
9 10 12 14 15 17 17 18 18 18 19 19 18 18 19 21 22 24 25 26 27 29 30 29 30 30 30 31 32 33 34 35 36 36 37 37 37 38 39 40 40 40 40 40
10 11 13 15 16 17 19 20 20 21 21 21 20 20 21 22 23 24 25 26 28 30 31 31 31 31 31 31 31 32 33 34 34 35 36 37 37 38 38 39 39 40 40 39
11 12 14 15 17 18 20 21 22 23 22 22 22 22 23 24 25 25 25 27 28 30 31 32 32 33 32 32 32 32 33 33 33 34 35 35 36 37 38 39 39 40 40 40
12 14 15 17 18 20 21 22 23 24 24 24 23 24 26 27 27 27 27 27 28 28 29 30 31 32 33 32 32 32 33 34 34 34 34 34 35 35 36 37 38 38 38 38
14 16 17 18 19 21 22 23 24 25 26 26 26 27 28 29 29 28 28 27 27 27 28 28 30 31 31 32 33 33 33 33 34 34 34 35 35 35 36 37 38 39 38 38
15 17 18 19 20 21 22 24 26 27 28 28 28 28 29 30 30 29 28 27 26 26 27 28 29 30 31 31 32 32 33 34 34 35 35 35 35 36 37 38 39 39 39 39
17 19 20 21 22 22 24 25 27 29 29 29 29 30 31 31 30 29 29 28 26 26 26 27 28 29 30 30 31 32 33 34 35 35 36 36 36 37 37 38 38 39 39 39
19 20 21 22 23 24 25 27 29 30 31 31 30 31 31 31 31 30 29 28 27 26 26 27 28 30 30 30 31 32 33 34 35 36 37 37 37 38 38 38 38 38 39 39
21 22 23 24 24 25 26 28 30 31 32 32 31 32 32 32 32 31 30 29 28 27 27 27 28 28 29 30 31 32 33 34 34 35 36 37 37 37 37 38 38 38 38 39
23 24 25 25 26 27 28 29 31 32 32 33 33 33 33 33 32 32 31 30 29 28 28 28 29 29 29 29 30 30 31 33 34 34 35 35 36 36 36 37 37 37 38 38
24 25 26 26 27 29 30 31 33 33 34 34 34 34 34 34 34 32 31 31 30 29 29 30 30 30 30 30 31 30 31 31 32 32 33 34 35 35 36 37 37 37 37 36
26 26 26 27 29 30 32 33 34 35 35 36 36 36 36 35 35 33 32 31 31 30 30 30 31 31 30 30 31 31 31 31 31 31 32 32 33 34 34 35 35 35 35 35
27 27 28 29 31 32 33 34 35 36 36 37 37 37 37 36 35 34 34 33 32 31 31 30 30 30 30 30 30 31 31 30 30 30 30 31 32 33 33 33 34 34 34 34
28 29 30 31 32 34 35 35 36 37 37 38 38 38 38 37 37 36 35 34 33 32 31 30 29 29 29 29 30 30 30 30 31 30 30 30 30 31 32 32 33 33 34 34
30 31 32 33 34 35 36 37 38 38 39 39 39 39 39 38 38 37 35 34 33 32 31 30 28 27 27 27 27 28 28 29 29 30 30 30 30 30 30 31 32 32 33 33
31 32 34 35 35 36 37 38 39 39 40 40 40 40 39 39 38 37 35 34 33 31 30 29 28 26 26 26 26 26 27 27 27 28 28 28 28 29 30 30 31 32 32 33
33 34 35 36 37 38 39 39 40 41 41 41 41 40 39 38 37 36 35 33 32 31 30 28 27 26 26 26 25 25 26 26 26 27 27 27 27 28 29 30 31 31 32 33
35 35 36 37 38 39 40 41 41 42 42 42 41 40 38 37 36 35 34 33 32 30 28 27 26 26 25 25 25 25 25 26 26 26 27 27 27 28 29 29 30 31 31 32
36 36 37 39 40 41 41 42 42 42 42 41 40 38 37 37 36 35 34 32 31 30 28 27 26 25 25 25 25 25 25 25 26 26 26 26 27 28 28 29 29 30 31 31
37 38 39 40 41 42 42 42 42 41 41 40 38 37 37 36 35 33 32 32 31 30 28 27 25 25 24 24 24 24 24 24 25 25 25 26 26 27 28 28 29 29 30 30

GEFSNGP_500_meanwind_120.txt.gz
Wind_Speed
6 7 8 9 9 9 10 10 10 9 8 7 7 6 7 8 9 10 11 13 14 16 18 19 20 22 24 26 28 29 29 30 31 33 35 37 38 40 42 43 44 45 46 45
5 6 7 8 9 9 10 11 11 10 10 9 8 8 8 9 9 9 11 13 14 15 16 18 19 20 22 24 26 28 29 29 31 33 34 37 39 40 41 42 43 45 47 46
3 5 6 7 8 9 10 11 12 11 12 11 10 9 9 10 10 11 12 14 15 16 17 19 20 22 23 24 26 28 29 30 31 33 34 36 37 39 41 42 43 42 43 43
2 4 6 7 8 9 9 10 11 12 12 12 12 12 12 13 13 13 15 15 17 18 19 20 22 23 24 25 26 27 28 29 30 32 34 35 36 39 40 41 41 40 40 40
2 3 5 6 8 9 9 10 12 12 13 13 13 13 14 15 15 15 16 17 19 20 21 22 23 24 25 26 27 28 29 31 31 32 34 35 37 37 38 39 39 38 38 38
2 3 4 5 7 8 9 10 12 13 14 14 15 15 15 17 17 17 18 19 20 21 22 23 25 26 26 28 29 30 31 31 32 32 32 35 36 37 37 38 37 38 38 37
3 4 5 6 8 9 10 11 13 15 16 17 17 17 17 19 19 19 20 21 22 23 24 24 25 26 27 28 30 31 32 32 32 32 33 34 35 36 37 37 38 38 37 37
5 5 6 7 8 10 11 13 14 16 17 19 19 19 20 20 21 22 23 24 25 26 26 26 27 27 28 29 30 31 31 32 34 34 34 35 35 36 37 37 38 38 37 36
6 6 7 8 10 11 13 14 16 17 19 20 21 21 21 22 23 24 25 26 27 28 28 28 28 27 27 28 29 31 32 33 33 34 35 35 36 37 38 38 38 38 39 38
8 9 10 10 11 12 14 16 17 18 20 21 21 22 22 23 24 25 26 28 29 29 29 28 28 28 29 29 29 30 32 33 34 34 35 35 37 38 38 38 38 39 38 39
10 11 12 12 13 14 16 17 18 20 21 22 22 23 24 25 26 26 27 28 29 31 30 29 28 28 28 29 30 32 33 34 34 35 36 36 37 38 39 39 38 38 38 38
12 13 14 14 15 16 18 19 21 22 23 24 24 25 26 27 28 28 29 29 30 31 31 29 28 28 28 28 30 32 33 34 35 36 37 37 37 38 39 39 39 39 39 39
15 15 16 17 18 19 20 21 22 23 24 25 26 27 28 29 30 30 31 31 31 32 31 30 29 29 29 30 30 31 32 34 34 35 36 37 38 38 37 38 39 39 39 40
17 17 18 19 20 21 22 23 23 24 26 27 28 29 30 30 31 32 32 33 33 33 32 32 31 30 30 31 31 31 32 33 33 34 35 36 37 37 37 38 38 39 40 40
19 20 21 21 22 22 23 24 25 26 27 28 30 31 32 32 33 33 34 34 34 34 34 34 32 32 32 32 32 32 33 33 33 33 34 34 35 36 37 37 38 39 39 39
21 22 23 23 24 25 25 26 27 28 29 30 31 32 33 34 34 35 35 36 36 36 35 35 34 33 33 33 33 33 34 34 33 33 33 33 33 33 34 36 36 37 38 38
23 24 24 25 26 26 27 28 29 30 31 32 33 34 35 35 36 36 37 37 37 37 37 35 34 34 34 34 34 34 34 34 34 33 32 32 32 32 33 34 35 35 36 37
25 26 26 27 27 28 29 30 31 32 32 33 34 35 36 36 37 37 38 38 39 38 38 37 36 36 35 35 35 35 34 34 34 33 32 32 32 32 32 33 33 34 35 37
27 27 27 27 28 29 30 31 32 33 34 35 35 36 37 38 38 39 39 40 40 39 39 38 38 37 37 36 35 34 34 33 32 32 33 33 32 32 32 32 32 33 34 35
27 27 28 29 29 30 32 33 34 34 35 36 37 38 38 38 39 40 41 41 41 40 40 39 38 38 37 36 35 33 32 31 31 31 31 32 32 32 32 32 32 32 32 33
29 29 29 30 32 33 33 34 35 36 37 38 39 39 39 39 40 41 41 41 41 40 40 39 38 37 36 35 33 32 31 30 30 29 30 30 30 30 31 31 31 31 31 32
31 31 32 33 34 34 35 36 37 38 39 40 40 40 40 40 41 41 41 41 41 40 39 38 38 37 36 34 32 31 30 29 29 29 29 29 29 30 29 29 29 29 29 29
32 33 34 35 36 36 37 37 38 39 40 41 41 40 40 41 41 41 41 41 40 39 38 37 37 36 34 32 31 30 28 28 28 28 29 29 29 29 29 29 29 29 29 29
33 34 35 36 37 37 38 38 39 40 41 41 41 40 41 41 41 41 41 40 39 38 37 36 35 34 32 31 30 29 28 28 28 28 27 27 28 28 28 28 27 27 28 28
34 35 36 37 37 37 38 39 40 41 41 40 40 40 41 41 41 40 39 38 38 37 36 35 34 33 32 31 29 28 28 27 27 27 26 26 26 26 25 25 25 26 26 27
35 36 37 37 37 38 39 40 41 41 41 40 40 41 41 41 40 39 38 37 36 35 35 34 33 32 31 30 29 28 27 27 26 26 25 25 25 25 24 24 24 25 25 26
36 37 37 37 38 38 39 40 40 40 40 40 40 40 40 40 39 38 37 36 35 35 34 34 33 32 31 30 29 28 27 26 25 25 24 24 24 24 24 24 24 25 25 26

GEFSNGP_500_meanwind_126.txt.gz
Wind_Speed
5 5 4 4 4 5 6 6 6 6 6 7 8 8 8 8 9 9 8 7 7 6 7 8 8 9 11 12 14 15 17 20 21 22 23 26 29 31 35 36 38 39 41 44
5 4 4 4 3 4 5 6 6 6 6 7 8 8 8 8 9 9 9 8 8 7 8 8 9 11 12 12 14 17 19 20 21 22 23 24 26 27 30 33 36 38 39 42
4 3 4 4 3 2 3 4 5 6 6 6 7 7 8 8 9 9 10 9 9 8 9 9 10 11 13 14 15 17 19 20 21 22 24 26 28 29 31 32 34 36 39 41
3 3 3 2 1 1 2 4 5 6 6 6 6 7 8 9 9 10 11 11 11 11 11 12 13 14 15 17 18 20 22 23 24 24 26 28 30 31 33 34 35 35 37 39
4 3 3 2 1 1 2 4 5 6 6 7 7 7 8 9 11 12 13 14 14 15 15 16 16 17 18 20 21 23 24 25 26 28 29 30 31 32 33 35 36 36 38 40
4 4 3 2 2 2 3 4 5 6 7 8 9 9 9 10 11 13 14 15 17 18 18 19 19 19 20 21 23 24 25 26 28 29 30 31 32 32 34 35 37 37 38 39
6 5 5 4 3 4 4 5 6 7 8 9 10 11 12 12 13 14 16 17 18 18 19 20 21 21 22 23 25 25 26 26 27 28 29 30 31 32 34 35 36 37 39 40
8 7 7 6 6 6 6 7 7 8 10 11 12 13 13 14 15 16 18 19 20 20 20 22 23 23 24 25 26 26 26 26 27 28 30 31 32 34 35 35 34 35 37 38
10 9 9 8 9 9 9 9 9 10 11 13 14 14 15 16 17 18 19 21 22 23 24 24 25 26 26 26 26 26 26 27 28 29 29 31 32 34 35 36 36 36 36 38
11 11 11 11 11 11 11 11 11 12 13 14 15 16 17 18 18 20 21 22 24 25 26 27 27 27 28 28 27 27 26 26 26 28 30 31 32 32 33 35 35 35 36 38
14 13 13 13 13 13 14 14 14 14 15 16 17 18 18 20 20 22 23 24 26 27 29 29 30 30 30 29 29 29 28 28 28 29 30 31 32 33 34 34 35 35 35 37
16 16 15 15 15 15 15 16 16 17 17 18 19 20 21 22 23 24 25 26 28 29 30 31 31 31 31 31 31 30 30 30 30 31 31 32 33 34 34 35 35 35 36 36
18 18 17 17 18 18 18 18 19 19 19 20 21 22 23 24 25 26 27 28 29 30 31 32 32 33 33 33 33 32 32 32 33 32 32 32 32 33 34 35 35 36 37 37
21 20 19 19 19 19 20 20 21 21 21 22 23 24 26 27 27 28 29 30 31 32 32 33 34 34 34 34 34 35 35 35 35 35 35 34 33 34 34 35 36 36 37 38
22 22 21 21 21 22 22 22 23 23 24 25 26 27 28 29 30 31 31 32 33 33 34 35 36 36 35 35 35 36 36 36 36 36 36 35 35 35 36 36 37 36 37 38
24 23 23 24 24 25 25 25 25 25 27 28 28 29 30 31 32 33 33 34 35 35 36 37 38 38 38 37 37 37 37 37 37 36 36 36 36 36 36 36 37 37 37 37
25 25 25 26 26 26 27 27 28 28 30 31 31 32 32 32 33 34 35 36 36 37 38 39 39 39 39 39 39 39 39 38 37 37 37 36 36 36 36 36 36 35 36 36
27 27 27 27 28 28 28 29 30 31 31 32 32 33 33 34 34 35 36 37 38 38 39 40 40 40 40 40 40 40 40 39 38 37 36 36 35 35 35 35 35 35 35 35
29 29 29 30 30 30 31 31 32 33 33 33 33 34 34 35 36 37 37 38 39 40 41 41 41 40 40 40 40 40 40 39 38 36 36 35 35 35 35 34 34 34 34 34
31 31 31 31 31 32 32 33 33 34 34 34 35 35 36 36 37 38 38 39 40 41 41 41 40 40 40 40 39 39 39 38 37 35 35 34 34 34 33 33 33 33 34 34
32 32 32 32 32 33 33 34 34 34 34 35 35 36 37 38 38 39 39 40 40 41 40 40 39 38 38 39 39 38 38 37 36 35 34 33 33 32 32 31 31 32 32 32
33 34 34 33 34 34 34 35 35 35 35 36 36 37 38 39 39 40 40 41 41 40 39 39 38 38 38 39 38 37 37 36 35 34 33 32 32 31 31 30 30 30 30 30
34 35 35 34 34 34 35 35 36 36 36 36 37 38 38 39 40 41 41 41 41 39 39 39 39 38 38 38 38 36 35 34 33 32 32 31 31 31 30 29 29 29 29 28
34 35 35 34 34 34 35 35 35 36 36 36 37 37 38 39 40 41 41 41 40 38 38 38 38 38 38 37 36 35 33 32 32 32 31 31 30 29 29 28 28 28 28 28
34 35 35 35 35 35 36 36 36 36 36 37 37 38 39 40 40 40 40 39 39 38 38 38 38 38 37 36 34 33 32 32 31 31 30 29 29 28 27 27 27 27 27 27
35 36 36 36 36 36 36 36 36 37 37 37 38 38 39 39 39 39 39 38 38 37 37 37 37 37 36 34 33 33 32 31 30 30 29 28 28 27 26 26 26 25 25 25
36 36 36 36 36 36 37 37 37 37 37 38 38 38 39 39 39 39 38 38 37 37 37 36 36 35 34 33 33 32 32 31 30 29 28 27 26 25 25 24 24 24 24 24

GEFSNGP_500_meanwind_132.txt.gz
Wind_Speed
4 4 3 2 2 2 2 3 3 4 5 4 4 5 5 5 6 7 8 7 6 6 7 8 8 8 8 9 9 10 12 13 15 17 20 23 27 30 32 35 37 39 43 44
4 5 5 4 3 3 3 3 4 5 5 5 5 5 5 6 6 7 8 9 9 9 8 8 8 9 10 11 11 12 13 14 15 17 19 21 25 29 31 34 36 38 41 42
4 4 5 5 5 5 5 5 5 5 5 5 6 6 6 6 7 8 8 9 10 11 10 10 11 11 11 11 13 14 15 16 18 19 20 22 24 27 30 33 35 38 40 41
4 5 5 5 5 5 5 5 5 5 5 6 7 7 7 7 8 9 10 10 11 12 12 13 13 13 14 15 16 17 17 18 19 20 21 22 24 27 30 32 34 36 37 39
6 5 5 6 6 6 7 7 6 6 6 7 7 7 7 8 9 11 11 12 13 13 14 14 15 16 18 18 19 20 20 20 21 22 23 24 25 27 29 32 33 34 36 37
7 7 6 6 7 7 7 7 7 7 7 7 7 8 9 10 11 12 13 14 15 16 16 16 17 19 20 21 21 22 22 23 23 24 24 25 26 27 28 30 31 33 35 36
8 8 8 8 8 8 9 8 8 9 9 9 9 10 10 11 12 13 14 15 16 17 18 19 19 20 21 22 23 23 24 25 26 25 25 26 27 27 28 30 31 33 34 36
10 9 9 9 10 10 10 10 10 10 11 11 12 12 13 13 14 15 16 17 18 19 20 21 21 22 22 24 25 26 27 27 26 26 27 27 28 28 28 30 31 32 33 34
12 11 12 12 12 12 12 12 13 13 13 14 15 15 15 16 17 17 18 19 20 21 22 23 24 24 24 26 27 28 28 29 28 28 28 29 29 30 31 31 32 32 34 35
15 14 15 15 15 15 15 15 16 17 17 18 18 19 19 19 19 20 20 21 21 22 23 24 25 26 27 28 29 30 31 30 29 30 30 30 31 32 33 33 33 33 34 35
18 18 19 18 18 18 18 19 20 20 21 22 22 22 22 22 22 22 22 22 23 24 25 26 27 28 30 31 32 33 32 32 33 33 33 33 33 33 33 33 33 33 34 34
20 21 22 21 21 22 22 22 23 23 24 24 24 24 24 24 25 25 25 25 26 27 28 28 29 30 31 33 34 34 34 34 35 35 36 35 35 35 34 34 34 34 35 35
25 25 25 24 25 25 25 25 26 26 26 26 26 26 27 27 28 28 28 28 29 29 30 31 32 33 34 35 36 36 36 37 37 37 37 37 37 36 36 36 36 36 36 36
28 28 28 27 28 28 28 28 28 28 29 29 29 29 29 30 30 30 30 31 32 32 33 33 35 35 36 37 37 38 39 39 39 39 39 39 38 37 37 37 36 36 36 36
30 30 30 30 30 30 31 30 30 30 31 31 31 31 31 31 32 32 32 33 34 34 35 36 37 37 37 38 39 40 40 40 41 41 40 39 39 39 39 38 38 37 36 36
31 31 31 31 32 32 32 32 32 32 32 33 32 32 33 33 33 34 34 35 36 37 38 38 38 38 39 40 41 42 41 42 42 41 40 40 39 39 39 38 38 37 36 36
31 31 32 32 33 33 33 33 32 33 33 33 34 34 34 35 35 36 36 37 38 39 39 39 39 40 41 42 43 43 42 41 41 40 40 40 40 40 39 38 37 37 36 36
32 33 34 35 34 34 33 33 33 34 34 34 34 35 35 35 36 37 38 38 39 39 39 40 41 42 43 44 43 42 42 42 41 40 40 40 40 41 40 39 38 37 36 35
33 34 35 35 35 34 33 33 34 34 35 35 36 35 36 36 37 37 38 38 39 39 40 41 42 42 43 43 42 42 42 41 41 40 41 40 40 40 40 39 38 37 35 35
33 34 35 35 34 34 34 35 35 36 36 37 37 37 37 37 38 38 38 38 39 39 41 42 42 42 42 42 42 42 41 41 41 41 41 40 40 39 39 38 37 36 35 34
33 34 35 35 35 35 35 36 36 36 37 38 38 38 38 38 39 38 39 39 40 41 41 42 42 41 42 42 41 41 41 41 41 41 40 40 39 38 37 36 35 34 33 32
34 34 35 35 34 34 35 36 36 36 37 38 38 39 39 39 39 39 39 40 40 41 41 42 41 41 41 41 41 41 41 41 40 40 39 38 37 36 36 35 34 32 31 30
34 34 35 35 35 35 35 35 36 37 38 38 39 39 40 40 40 40 40 40 41 41 41 41 41 40 41 41 41 41 40 40 39 39 38 37 36 35 34 33 32 30 29 29
36 35 35 36 36 36 36 36 37 38 38 39 39 40 40 40 40 40 40 41 41 41 41 41 41 41 41 41 41 40 39 38 38 37 37 36 35 34 33 31 30 29 28 28
37 37 37 37 37 37 38 38 38 39 39 39 40 40 40 40 40 40 40 41 41 41 41 41 40 40 40 40 39 39 38 37 37 37 36 35 34 32 31 30 28 28 27 27
37 38 38 39 39 39 40 40 40 40 40 40 40 40 40 40 40 40 40 40 40 41 40 40 39 39 39 38 38 37 37 36 36 36 36 34 33 31 30 29 28 27 27 26
39 39 40 40 40 41 41 40 40 40 40 39 39 39 39 40 39 39 40 40 40 40 39 39 38 38 37 37 36 37 37 37 36 35 34 33 32 30 29 28 27 27 26 25

GEFSNGP_500_meanwind_138.txt.gz
Wind_Speed
3 3 3 2 2 3 3 3 4 4 3 4 4 4 4 3 3 3 4 5 6 6 6 7 7 7 7 7 7 7 8 10 11 13 15 17 20 22 25 27 30 31 34 37
5 5 5 4 3 3 3 3 4 4 4 5 5 5 4 4 4 4 5 6 7 7 8 9 9 9 8 8 8 9 11 12 13 15 16 18 20 22 24 26 28 30 32 35
7 7 7 6 5 4 4 4 4 4 5 5 5 5 5 5 5 6 7 7 7 7 8 9 9 10 10 10 10 10 12 14 15 16 18 20 21 23 25 28 30 31 32 34
7 7 7 6 6 6 6 5 5 5 6 6 5 5 5 6 6 7 7 7 7 8 9 10 10 11 11 11 12 12 13 15 16 16 17 19 21 23 25 28 30 32 34 34
8 8 8 7 7 7 7 7 7 7 7 6 6 6 6 7 8 9 9 9 10 10 11 12 12 13 14 14 13 14 15 16 17 18 18 20 21 22 24 26 28 30 32 33
9 9 9 8 9 9 8 9 9 9 9 8 8 8 8 8 9 11 11 12 13 13 13 14 14 15 16 16 15 16 16 17 18 20 21 22 23 25 26 27 28 29 31 32
11 11 10 9 10 10 10 10 10 11 11 11 11 10 10 11 12 13 14 15 16 16 16 16 17 18 18 18 18 19 20 20 21 22 23 24 25 26 28 29 30 30 31 31
13 12 11 11 12 12 12 12 12 13 13 14 14 14 14 14 15 16 17 18 18 19 19 19 19 19 19 20 21 22 23 24 25 26 27 28 29 29 30 30 31 31 31 32
14 14 13 14 14 14 15 15 15 16 17 17 17 17 18 18 19 20 20 21 21 21 21 21 21 22 22 23 24 25 25 26 27 29 30 31 32 31 31 31 31 31 31 32
16 16 17 16 17 17 18 18 19 20 20 20 20 21 21 22 22 22 23 23 24 24 24 24 24 24 24 25 26 27 28 28 30 31 33 34 33 33 33 33 33 33 34 34
18 19 19 19 20 21 21 22 22 23 23 24 24 24 25 25 26 26 26 26 26 26 26 27 27 26 27 27 28 28 30 31 32 33 34 34 34 34 35 35 36 36 36 37
21 21 22 22 23 24 25 25 25 26 27 27 27 28 28 29 29 29 29 29 29 29 29 29 29 30 30 30 30 31 32 33 34 34 35 36 37 37 37 37 37 37 37 37
24 25 25 25 26 27 28 28 28 28 29 29 30 30 30 30 30 31 31 32 32 32 32 32 32 32 32 32 33 33 34 35 35 36 37 37 38 38 37 36 36 37 37 37
27 27 27 28 28 29 30 30 30 30 31 31 31 32 32 32 32 32 33 33 33 33 33 33 34 34 34 34 35 36 36 37 37 37 37 37 37 37 37 37 37 38 38 37
29 29 30 30 31 31 32 32 32 32 32 32 32 32 33 33 33 33 33 34 34 34 34 34 35 35 35 35 36 37 38 38 38 37 37 37 38 38 39 39 39 39 39 38
30 31 31 32 32 32 32 32 33 32 33 33 33 34 34 34 34 34 34 34 34 34 35 35 36 36 35 36 37 37 37 37 37 37 38 39 40 40 40 40 39 39 38 38
31 31 33 33 33 33 32 32 32 32 33 33 34 34 35 35 35 35 35 35 35 35 35 36 36 36 37 37 38 38 37 37 38 38 39 40 40 40 40 40 40 40 39 39
32 32 32 33 33 34 33 33 33 33 33 33 34 34 34 34 35 35 35 35 36 36 36 37 37 38 38 38 39 39 38 38 39 39 40 40 40 40 40 40 40 40 40 39
32 33 33 34 34 34 34 34 34 34 34 33 33 33 34 35 35 36 36 36 36 37 37 38 38 38 38 39 39 39 39 39 40 40 40 40 40 40 40 40 39 38 38 38
34 34 34 35 35 35 35 35 35 34 34 34 34 34 34 35 36 37 37 37 37 37 38 38 38 38 39 39 40 40 40 40 40 40 40 40 40 40 40 39 38 38 37 37
36 36 36 37 36 36 36 36 36 36 35 34 34 35 36 36 36 37 37 37 38 38 38 38 38 38 39 39 40 40 40 40 40 40 40 40 40 40 40 39 38 38 37 36
36 37 37 37 37 37 36 36 36 36 36 35 35 36 36 37 37 37 37 38 38 39 39 39 39 39 40 40 40 40 40 40 40 40 40 41 41 40 39 38 37 36 35 34
36 36 36 36 37 36 36 36 36 36 36 36 36 37 37 37 37 37 37 38 39 39 39 39 40 40 40 39 39 39 40 40 40 40 40 40 40 39 39 38 36 35 33 32
37 36 36 36 36 36 35 35 35 35 36 36 37 37 37 37 38 38 38 38 39 39 40 40 40 40 40 39 39 39 39 39 39 39 39 39 39 38 37 36 35 34 32 32
37 36 36 36 36 35 35 35 35 35 36 37 37 37 37 37 37 38 38 39 39 39 40 40 39 39 39 38 37 37 37 38 38 39 39 38 38 37 36 35 34 32 31 30
37 36 36 36 36 35 35 35 35 35 36 36 36 37 37 37 37 37 38 38 39 39 39 39 38 38 37 36 36 37 37 37 37 37 37 36 36 35 34 33 32 31 30 29
37 36 36 36 35 35 34 35 35 35 35 35 35 35 35 36 36 37 37 37 37 37 37 37 36 35 35 36 36 36 37 36 36 36 35 34 34 33 32 31 30 29 28 27